Volver al catálogo

DELTA 1 DEB

ActivoSSO
NORAD 21602·DEBRIS·🇺🇸 United States

Lanzado Jun 12, 1975 desde Vandenberg Space Force Base

Loading…

Próximos Pases (próximas 24 horas)

TLE

ActualizadoSource: Space-Track

Época: Sep 14, 2026, 00:42 UTC

1 21602U 75052HW  26257.02969975  .00001520  00000-0  20616-2 0  9994
2 21602  99.6379 286.8559 0073219 301.3981  87.4610 13.59973485715278

Sigue DELTA 1 DEB en tiempo real con AllMySat

Download on the App Store